Other Public Products
Issued by NWS Charleston, SC

Home | Current Version | Previous Version | Text Only | Print | Product List | Glossary On
Versions: 1 2 3 4 5 6 7 8 9 10 11 12 13 14 15 16 17 18 19 20 21 22 23 24 25 26 27 28 29 30 31 32 33 34 35 36 37 38 39 40 41 42 43 44 45 46 47 48 49 50
000
FPUS82 KCHS 310012
OPUCHS

TEST...KCHS/KSAV Gateway Observations...TEST
National Weather Service Charleston SC
800 PM EDT THU MAR 30 2017

NOTE: "fair" indicates few or no clouds below 12,000 feet with no
significant weather and/or obstructions to visibility.

SCZ050-WAZ558-NCZ071-TXZ119-213-PAZ071-DCZ001-FLZ074-172-MI076-
NYZ176-178-MAZ016-IL014-TNZ027-NJZ106-GAZ044-MD014-310100-

...Gateway Observations for Charleston International...

CITY           SKY/WX    TMP DP  RH WIND       PRES   REMARKS
Chas Airport   LGT RAIN  67  62  84 SE14      29.96S
6HR MIN TEMP:  67; 6HR MAX TEMP:  73; 6HR PCP:  0.01;

Seattle        PTSUNNY   54  38  54 N6        30.26R
6HR MIN TEMP:  47; 6HR MAX TEMP:  54;

Charlotte      CLOUDY    64  60  87 SE15      29.92F
6HR MIN TEMP:  64; 6HR MAX TEMP:  70; 6HR PCP:  0.06;

Dallas DFW     PTCLDY    79  43  27 NW8       29.69F
6HR MIN TEMP:  70; 6HR MAX TEMP:  80;

Dallas Love    PTCLDY    78  44  29 NW8       29.70F
6HR MIN TEMP:  69; 6HR MAX TEMP:  79;

Philladelphia  CLOUDY    47  31  53 S5        30.15R
6HR MIN TEMP:  47; 6HR MAX TEMP:  52;

Wash National  CLOUDY    52  40  63 SE12      30.07F
6HR MIN TEMP:  52; 6HR MAX TEMP:  55;

Baltimore      CLOUDY    49  40  71 SE9       30.07F
6HR MIN TEMP:  47; 6HR MAX TEMP:  50;

Miami          PTCLDY    77  64  64 SE10      29.95S
6HR MIN TEMP:  77; 6HR MAX TEMP:  84;

Detroit        TSTM      39  38  96 E9        29.76R FOG     WCI  33
6HR MIN TEMP:  39; 6HR MAX TEMP:  41; 6HR PCP:  0.41;

Newark         CLOUDY    46  29  51 S8        30.14R
6HR MIN TEMP:  46; 6HR MAX TEMP:  52; 6HR PCP: TRACE;

Laguardia      LGT RAIN  45  30  55 S12       30.13S
6HR MIN TEMP:  45; 6HR MAX TEMP:  53; 6HR PCP: TRACE;

J F K          LGT RAIN  43  31  62 SW16      30.17R
6HR MIN TEMP:  43; 6HR MAX TEMP:  48; 6HR PCP: TRACE;

Boston Logan   CLOUDY    41  27  57 SE9       30.16R
6HR MIN TEMP:  40; 6HR MAX TEMP:  48;

Ft. Lauderdale PTCLDY    77  62  59 SE12      29.94R
6HR MIN TEMP:  77; 6HR MAX TEMP:  82;

Chicago O`Hare CLOUDY    42  39  89 NE16      29.63R FOG
6HR MIN TEMP:  42; 6HR MAX TEMP:  45; 6HR PCP:  0.37;

Chicago Midway CLOUDY    45  43  93 NE14      29.62R
6HR MIN TEMP:  43; 6HR MAX TEMP:  46; 6HR PCP:  0.49;

Houston Bush   CLEAR     74  47  38 W8        29.78F
6HR MIN TEMP:  70; 6HR MAX TEMP:  77;

Houston Hobby  CLEAR     75  43  31 W8        29.78F
6HR MIN TEMP:  69; 6HR MAX TEMP:  77;

Nashville      LGT RAIN  70  58  65 S16G25    29.63S
6HR MIN TEMP:  70; 6HR MAX TEMP:  80; 6HR PCP:  0.01;

Atlanta        CLOUDY    77  51  40 S6        29.80S
6HR MIN TEMP:  77; 6HR MAX TEMP:  82;


$$

GAZ044-118-TXZ119-213-NCZ071-DCZ001-MDZ014-506-PAZ021-071-NJZ106-
NYZ176-178-MAZ106-OHZ011-021-055-MIZ076-KYZ091-ILZ014-INZ047-
MNZ060-ONZ431-310100-

...Gateway Observations for Savannah International...

CITY           SKY/WX    TMP DP  RH WIND       PRES   REMARKS
Savannah Arpt  LGT RAIN  71  65  81 E12       29.91S
6HR MIN TEMP:  71; 6HR MAX TEMP:  81; 6HR PCP:  0.05;

Atlanta        CLOUDY    77  51  40 S6        29.80S
6HR MIN TEMP:  77; 6HR MAX TEMP:  82;

Charlotte      CLOUDY    64  60  87 SE15      29.92F
6HR MIN TEMP:  64; 6HR MAX TEMP:  70; 6HR PCP:  0.06;

Dallas DFW     PTCLDY    79  43  27 NW8       29.69F
6HR MIN TEMP:  70; 6HR MAX TEMP:  80;

Houston Bush   CLEAR     74  47  38 W8        29.78F
6HR MIN TEMP:  70; 6HR MAX TEMP:  77;

Wash National  CLOUDY    52  40  63 SE12      30.07F
6HR MIN TEMP:  52; 6HR MAX TEMP:  55;

Wash Dulles    CLOUDY    52  38  58 SE8       30.04F
6HR MIN TEMP:  52; 6HR MAX TEMP:  53;

Baltimore      CLOUDY    49  40  71 SE9       30.07F
6HR MIN TEMP:  47; 6HR MAX TEMP:  50;

Philadelphia   CLOUDY    47  31  53 S5        30.15R
6HR MIN TEMP:  47; 6HR MAX TEMP:  52;

Newark         CLOUDY    46  29  51 S8        30.14R
6HR MIN TEMP:  46; 6HR MAX TEMP:  52; 6HR PCP: TRACE;

Laguardia      LGT RAIN  45  30  55 S12       30.13S
6HR MIN TEMP:  45; 6HR MAX TEMP:  53; 6HR PCP: TRACE;

J F K          LGT RAIN  43  31  62 SW16      30.17R
6HR MIN TEMP:  43; 6HR MAX TEMP:  48; 6HR PCP: TRACE;

Boston         CLOUDY    41  27  57 SE9       30.16R
6HR MIN TEMP:  40; 6HR MAX TEMP:  48;

Pittsburg      LGT RAIN  55  43  63 SE15      29.75F
6HR MIN TEMP:  49; 6HR MAX TEMP:  56; 6HR PCP: TRACE;

Akron          TSTM      51  43  74 E13       29.73F
6HR MIN TEMP:  50; 6HR MAX TEMP:  55; 6HR PCP:  0.06;

Cleveland      CLOUDY    52  40  63 E9        29.74F
6HR MIN TEMP:  44; 6HR MAX TEMP:  52; 6HR PCP:  0.02;

Cincinnati     CLOUDY    73  51  46 SW18G24   29.61R
6HR MIN TEMP:  73; 6HR MAX TEMP:  79;

Columbus       LGT RAIN  69  57  66 E6        29.61F
Detroit        TSTM      39  38  96 E9        29.76R FOG     WCI  33
6HR MIN TEMP:  39; 6HR MAX TEMP:  41; 6HR PCP:  0.41;

Chicago O`Hare CLOUDY    42  39  89 NE16      29.63R FOG
6HR MIN TEMP:  42; 6HR MAX TEMP:  45; 6HR PCP:  0.37;

Minneapolis    CLOUDY    48  33  56 E13G20    29.82R
6HR MIN TEMP:  45; 6HR MAX TEMP:  50;

Indianapolis   TSTM      57  55  93 NW14      29.61R
6HR MIN TEMP:  57; 6HR MAX TEMP:  73; 6HR PCP:  0.54;

Toronto Canada LGT SNOW  32  30  93 E13G23    30.04F WCI  22

$$




USA.gov is the U.S. government's official web portal to all federal, state and local government web resources and services.